087  
SXUS52 KCHS 190827  
OSOCHS  
 
MARINE OBSERVATIONS  
NATIONAL WEATHER SERVICE CHARLESTON SC  
400 AM EDT THU SEP 19 2019  
   
..DOWNTOWN CHARLESTON AND HARBOR
 
 
 
CITY SKY/WX TMP DP RH WIND PRES REMARKS  
WATERFRONT PRK N/A 71 62 73 NE15 29.97S  
   
..LAKE MOULTRIE
 
 
 
CITY SKY/WX TMP DP RH WIND PRES REMARKS  
PINOPOLIS N/A 68 61 77 E15 30.06S  
   
..LAKE AND SUPPLEMENTAL COASTAL OBSERVATIONS
 
 
 
STATION/POSITION TIME TEMP WIND PRES WAVE SWELL  
AIR SEA DIR/SP/G HT/PER HT/PER/DIR  
(UTC) (F) (DEG/KT/KT) (MB) (FT/S) (FT/S/D)  
CHRLSTN HARBOR 0754 70 83 360/ 4/ 11 1020.3R  
FORT PULASKI 0748 76 81 70/ 15/ 20 1019.1F  
SAPELO ISLAND 0800 76 70/ 9 1018.0  
WINYAH BAY 0745 66 360/ 6 1020.0S  
LAKE MURRAY 0820 69 70/ 8/ 15 1021.3  
ACE BASIN NERRS 0745 68 10/ 1 1020.0S  
 
   
..C-MAN AND BUOY OBSERVATIONS
 
 
 
STATION/POSITION TIME TEMP WIND PRES WAVE SWELL  
AIR SEA DIR/SP/G HT/PER HT/PER/DIR  
(UTC) (F) (DEG/KT/KT) (MB) (FT/S) (FT/S/D)  
BUOY 41004 0810 81 40/ 17/ 21 1018.8  
BUOY 41008 0750 79 82 70/ 17/ 21 1017.6S 6/ 7 3/ 80/12  
FOLLY BEACH CMAN 0800 71 20/ 16/ 19 1020.3F  
PRITCHARDS ISLAN NOT AVBL  
CAPERS NS BUOY 0808 74 81 60/ 19/ 25 1020.1R  
FRIPP NS BUOY 0808 76 82 70/ 17/ 25 1018.5F  
5E ST. MARYS GA 0800 83 N/A 6/12 3/100/12  
 
 
STATION/POSITION TIME TEMP WIND PRES WAVE SWELL  
AIR SEA DIR/SP/G HT/PER HT/PER/DIR  
(UTC) (F) (DEG/KT/KT) (MB) (FT/S) (FT/S/D)  
FRYING PAN BUOY 0810 74 81 30/ 21/ 27 1019.0  
BUOY 41025 0810 71 74 30/ 23/ 29 1019.5  
CAPE LOOKOUT NC 0800 67 20/ 21/ 25 1020.6R  
BUOY 41002 0810 77 30/ 19/ 25 1015.7  
BUOY 41010 0810 79 81 30/ 21/ 27 1015.1  
ST AUGUSTINE FL 0800 80 82 50/ 20/ 23 1016.5F  
 

 
 
 
CLICK HERE TO GO TO PREVIOUS BULLETINS.

The Nexlab SC Page
The Nexlab GA Page Main Text Page